Content
SEND FEEDBACK

Daily
Averages
Monthly
Summary
United States of America

SIASCONSET, MASSACHUSETTS


Home > North America > United States > Massachusetts
Elevation: 5 feet     Latitude: 41 15N     Longitude: 070 04W

WEATHER
 
SELECT A DAY
Number of Records: 217,323;   Date Range: 1/1/95 - 11/24/14
 
SHARE

PRINT THIS DATA

[ ← Previous Day ]
WEATHER ALMANAC - JANUARY 31, 2013
[ Next Day → ]
[ °C ]   °F
Weather ElementAverageHighLow
Temperature30.7 °F53.6 °F (9:00 am) (12:19 am)
Dewpoint25.8 °F52 °F (9:53 am) (7:00 pm)
Humidity77.4 %100 % (8:20 am)50 % (11:53 pm)
Barometer29.39 in29.65 in (11:53 pm)29.14 in (9:00 am)
Wind Speed25.7 mph32.2 mph (9:53 am)
Wind Gust44.9 mph (8:20 am)
Weather ElementAverage
Visibility5.1 mi
Wind DirectionSSW (207.8 °)

Weather ElementTotal
Precipitation0.41 in
Heating Degree Days38.2 (Base 65)
Averaged from 37 records on January 31, 2013
WEATHER CONDITIONS BREAKOUT
WIND DIRECTION BREAKOUT
WEATHER BY HOUR - JANUARY 31, 2013
[ °C ]   °F
Local TimeTemperatureDewpointHumidityBarometerVisibilityWind DirectionWind SpeedGust SpeedPrecipitationEventsConditions
12:19 AM0.0 °F0.0 °F29.61 in0.2 miSouth (170°)15.0 mphFogFog
12:53 AM0.0 °F0.0 °F29.58 in0.2 miSouth (180°)18.4 mph25.3 mphFogFog
1:05 AM0.0 °F0.0 °F29.56 in0.8 miSouth (190°)19.6 mph26.5 mphMist
1:12 AM0.0 °F0.0 °F29.56 in1.8 miSouth (190°)20.7 mph28.8 mphOvercast
1:19 AM0.0 °F0.0 °F29.55 in2.5 miSouth (190°)20.7 mph28.8 mphOvercast
1:25 AM0.0 °F0.0 °F29.54 in3.0 miSouth (180°)20.7 mph28.8 mphOvercast
1:40 AM0.0 °F0.0 °F29.54 in3.0 miSouth (190°)24.2 mph29.9 mphOvercast
1:53 AM0.0 °F0.0 °F29.53 in4.0 miSouth (180°)24.2 mph32.2 mphHaze
2:53 AM0.0 °F0.0 °F29.48 in4.0 miSouth (180°)23.0 mph32.2 mphHaze
3:53 AM0.0 °F0.0 °F29.40 in4.0 miSouth (170°)23.0 mph31.1 mphHaze
4:40 AM0.0 °F0.0 °F29.34 in4.0 miSouth (170°)25.3 mph33.4 mphHaze
4:53 AM0.0 °F0.0 °F29.34 in4.0 miSouth (170°)25.3 mph34.5 mphHaze
5:53 AM50.0 °F48.9 °F96 %29.28 in4.0 miSouth (180°)24.2 mph33.4 mph0.00 inOvercast
6:04 AM50.0 °F48.2 °F94 %29.30 in4.0 miSouth (180°)25.3 mph35.7 mphOvercast
6:30 AM50.0 °F48.2 °F94 %29.27 in3.0 miSouth (170°)26.5 mph38.0 mph0.01 inRainLight Rain
6:53 AM50.0 °F48.9 °F96 %29.25 in3.0 miSouth (170°)21.9 mph31.1 mph0.02 inRainLight Rain
7:06 AM50.0 °F48.2 °F94 %29.24 in2.5 miSouth (180°)25.3 mph32.2 mph0.02 inRainLight Rain
7:41 AM50.0 °F48.2 °F94 %29.19 in1.8 miSouth (170°)29.9 mph42.6 mph0.10 inRainRain
7:53 AM50.0 °F48.9 °F96 %29.18 in1.2 miSouth (180°)31.1 mph43.7 mph0.16 inRainLight Rain
8:20 AM51.8 °F51.8 °F100 %29.16 in1.0 miSouth (180°)29.9 mph44.9 mph0.03 inOvercast
8:53 AM51.8 °F51.1 °F97 %29.15 in1.0 miSouth (190°)31.1 mph44.9 mph0.05 inRainLight Rain
9:00 AM53.6 °F51.8 °F94 %29.14 in0.8 miSouth (190°)28.8 mph43.7 mph0.00 inRainLight Rain
9:53 AM52.5 °F52.0 °F98 %29.18 in2.5 miSW (220°)32.2 mph43.7 mph0.02 inOvercast
10:53 AM46.9 °F44.1 °F90 %29.22 in5.0 miSW (230°)26.5 mph33.4 mph0.00 inOvercast
11:53 AM46.9 °F39.0 °F74 %29.24 in6.0 miWSW (240°)29.9 mphPartly Cloudy
12:53 PM46.9 °F37.0 °F68 %29.26 in10.0 miWSW (240°)27.6 mph36.8 mphClear
1:53 PM46.0 °F34.0 °F63 %29.30 in10.0 miWSW (250°)28.8 mph40.3 mphClear
2:53 PM45.0 °F30.9 °F58 %29.34 in10.0 miWSW (250°)27.6 mph38.0 mphClear
3:53 PM43.0 °F30.0 °F60 %29.39 in10.0 miWSW (250°)28.8 mph39.1 mphClear
4:53 PM39.9 °F30.0 °F68 %29.43 in10.0 miWest (260°)24.2 mph32.2 mphClear
5:53 PM39.9 °F30.0 °F68 %29.47 in10.0 miWSW (250°)27.6 mph35.7 mphClear
6:53 PM39.9 °F28.0 °F63 %29.51 in10.0 miWSW (250°)25.3 mph33.4 mphClear
7:53 PM39.0 °F24.1 °F55 %29.54 in10.0 miWest (260°)26.5 mph36.8 mphClear
8:53 PM37.0 °F21.0 °F52 %29.57 in10.0 miWest (260°)29.9 mph41.4 mphClear
9:53 PM36.0 °F21.9 °F57 %29.60 in10.0 miWest (260°)26.5 mph43.7 mphClear
10:53 PM35.1 °F21.0 °F57 %29.63 in10.0 miWest (260°)26.5 mph39.1 mphPartly Cloudy
11:53 PM34.0 °F17.1 °F50 %29.65 in10.0 miWest (260°)28.8 mph39.1 mphMostly Cloudy
Hourly data recorded from KACK, located miles away from Siasconset, Massachusetts







STORIES FROM OUR PARTNERS